[[{"header":{"parameterUnit":"m.s-1","parameterCategory":1,"la1":30.2991,"la2":30.254,"lo1":-89.0895,"lo2":-89.0444,"dy":0.0017,"dx":0.0017,"nx":28,"ny":28,"refTime":"2024-05-22T21:00:00:Z","depth":0,"parameterNumber":2,"parameterNumberName":"U-component_of_WINDS"},"data":[0,0,0,0,0,0,0,0,0,0,0,0,0,0,0,0,0,0,0,0,0,0,0,0,0,0,0,0,0,0,0,0,0,0,0,0,0,0,0,0,0,0,0,0,0,0,0,0,0,0,0,0,0,0,0,0,0,0,-1.9748,-1.9747,0,-1.9667,-1.9667,-1.9666,-1.9588,-1.9587,-1.9586,-1.9585,-1.9499,-1.9497,-1.9496,0,0,0,0,0,0,0,0,0,0,0,0,0,-1.9833,-1.9832,-1.9748,-1.9747,-1.9746,-1.9668,-1.9666,-1.9665,-1.9588,-1.9587,-1.9585,-1.9584,-1.9499,-1.9498,-1.9496,0,0,0,0,0,0,0,0,0,0,0,0,0,-1.9779,-1.9832,-1.9748,-1.9698,-1.9693,-1.9668,-1.9666,-1.9665,-1.9588,-1.9587,-1.9585,-1.9584,-1.95,-1.9498,-1.9496,-1.9513,0,0,-1.9489,-1.9489,0,0,0,0,0,0,0,0,-1.9782,-1.9776,-1.9707,-1.9702,-1.9696,-1.9636,-1.9665,-1.9614,-1.9589,-1.9628,-1.9585,-1.9583,-1.9545,-1.954,-1.9528,-1.9509,-1.9505,-1.9489,-1.9488,-1.9487,-1.9487,0,0,0,0,0,0,0,-1.9786,-1.9779,-1.9716,-1.9706,-1.9699,-1.9679,-1.967,-1.9655,-1.9596,-1.9624,-1.9618,-1.961,-1.9542,-1.953,-1.9525,-1.9504,-1.9489,-1.9488,-1.9486,-1.9485,-1.9494,-1.9496,0,0,0,0,0,0,-1.9798,-1.9782,-1.9719,-1.9714,-1.9736,-1.9679,-1.9668,-1.9657,-1.9596,-1.9585,-1.9612,-1.9607,-1.9534,-1.9527,-1.9522,-1.9536,-1.9487,-1.9485,-1.9484,-1.9493,-1.9495,-1.9496,0,0,0,0,0,0,-1.98,-1.9793,-1.9722,-1.9747,-1.9736,-1.9679,-1.9667,-1.9656,-1.9643,-1.9586,-1.9575,-1.961,-1.9533,-1.9525,-1.9516,-1.9532,-1.9484,-1.9482,-1.9491,-1.9493,-1.9495,-1.9567,0,0,0,0,0,0,-1.9803,-1.9794,-1.98,-1.9747,-1.9735,-1.9718,-1.9668,-1.9655,-1.964,-1.9634,-1.9582,-1.9571,-1.9531,-1.9519,-1.9514,-1.9529,-1.9481,-1.9489,-1.9492,-1.9495,-1.9563,-1.9572,-1.9579,0,0,0,0,0,-1.9806,-1.9823,-1.9801,-1.9794,-1.9742,-1.9719,-1.9712,-1.9666,-1.9642,-1.9647,-1.9611,-1.9573,-1.9532,-1.9519,-1.9512,-1.9527,-1.9488,-1.9491,-1.9495,-1.956,-1.957,-1.9579,0,0,0,0,0,0,-1.9878,-1.9815,-1.979,-1.9791,-1.9761,-1.9706,-1.9711,-1.9679,-1.9654,-1.9649,-1.9591,-1.958,-1.9578,-1.9552,-1.9538,-1.954,-1.9505,-1.9507,-1.9557,-1.9566,-1.9574,-1.9579,-1.9479,0,0,0,0,0,-1.9895,-1.9882,-1.9828,-1.9834,-1.982,-1.9769,-1.9757,-1.9725,-1.9691,-1.9678,-1.964,-1.9609,-1.9589,-1.9576,-1.9555,-1.956,-1.9547,-1.9567,-1.9575,-1.9582,-1.9583,-1.9583,-1.9591,-1.9507,-1.9507,-1.9507,0,0,-1.9927,-1.9891,-1.9887,-1.9847,-1.982,-1.9808,-1.9759,-1.9748,-1.9738,-1.9676,-1.9665,-1.9637,-1.9598,-1.9596,-1.9593,-1.9574,-1.9604,-1.9586,-1.9592,-1.9589,-1.9588,-1.9596,-1.9603,-1.9509,-1.9509,-1.9509,0,0,-1.998,-1.9953,-1.9954,-1.9929,-1.989,-1.9856,-1.9857,-1.9807,-1.9786,-1.9775,-1.9728,-1.9715,-1.9682,-1.9656,-1.9638,-1.9684,-1.9648,-1.9679,-1.9719,-1.972,-1.9726,-1.9732,-1.9747,-1.9753,-1.9681,-1.9681,-1.9681,0,-2.0025,-2.0006,-1.9959,-1.9951,-1.9935,-1.988,-1.9881,-1.9858,-1.9814,-1.9803,-1.9783,-1.974,-1.971,-1.9701,-1.9712,-1.9701,-1.9698,-1.9683,-1.973,-1.9735,-1.9739,-1.9752,-1.9758,-1.9685,-1.9685,-1.9684,-1.9684,0,-2.0063,-2.005,-2.0056,-2.0016,-2.0,-1.9997,-1.9948,-1.9938,-1.9908,-1.9876,-1.9865,-1.9828,-1.9797,-1.9793,-1.9763,-1.978,-1.9769,-1.9741,-1.9703,-1.9752,-1.9763,-1.9768,-1.9691,-1.9689,-1.9688,-1.9687,0,0,-2.0156,-2.0091,-2.0094,-2.0075,-2.0029,-2.0017,-2.0012,-1.9983,-1.9975,-1.9947,-1.994,-1.9914,-1.9887,-1.9868,-1.9834,-1.9835,-1.9872,-1.9806,-1.9804,-1.9818,-1.9887,-1.9907,-1.9914,-1.9849,-1.985,-1.9851,-1.989,0,-2.02,-2.0186,-2.0145,-2.0144,-2.0131,-2.008,-2.0075,-2.0046,-2.0016,-2.0,-1.9968,-1.995,-1.9917,-1.9904,-1.9904,-1.9868,-1.9885,-1.9865,-1.984,-1.9839,-1.9849,-1.992,-1.9941,-1.998,-1.9894,-1.9895,-1.9895,0,-2.0248,-2.0224,-2.0222,-2.0177,-2.017,-2.0166,-2.0137,-2.0123,-2.0089,-2.0067,-2.0047,-2.001,-2.0,-1.9968,-1.9953,-1.9941,-1.9928,-1.991,-1.991,-1.9904,-1.9869,-1.9914,-1.9991,-1.9997,-1.9902,-1.9902,-1.9901,0,-2.0314,-2.0282,-2.0276,-2.0262,-2.0209,-2.0207,-2.0185,-2.015,-2.0136,-2.011,-2.01,-2.0074,-2.0059,-2.0039,-1.9996,-1.9977,-1.9986,-1.995,-1.9966,-1.9967,-1.9967,-1.9968,-2.0042,-1.9964,-1.9964,-1.9964,-1.9964,0,-2.0366,-2.0366,-2.0305,-2.0302,-2.03,-2.0253,-2.0253,-2.0226,-2.0195,-2.0185,-2.014,-2.0131,-2.0075,-2.006,-2.0026,-2.0019,-2.0013,-1.9994,-1.9984,-1.9996,-1.9999,-1.9986,-1.9981,-1.9966,-1.9965,-1.9965,-1.9965,0,-2.0438,-2.0398,-2.0388,-2.034,-2.0328,-2.0329,-2.0287,-2.0281,-2.025,-2.0237,-2.0232,-2.0183,-2.0162,-2.0118,-2.0086,-2.0063,-2.0063,-2.0047,-2.0074,-2.0068,-2.0085,-2.0084,-2.0152,-2.0158,-2.0079,-2.008,-2.0081,0,-2.0472,-2.0472,-2.0424,-2.0414,-2.0394,-2.0379,-2.0365,-2.0318,-2.0305,-2.0267,-2.0266,-2.0242,-2.022,-2.019,-2.0151,-2.0126,-2.0108,-2.0134,-2.0104,-2.0116,-2.0106,-2.0106,-2.0105,-2.014,-2.0141,-2.0142,-2.0143,0,-2.0537,-2.0517,-2.0499,-2.0474,-2.0458,-2.0436,-2.0411,-2.0406,-2.0353,-2.0341,-2.032,-2.0304,-2.0271,-2.0248,-2.0217,-2.0193,-2.0159,-2.0153,-2.0155,-2.0166,-2.0181,-2.0171,-2.009,-2.0151,-2.015,-2.0149,-2.0149,-2.0149,-2.059,-2.0586,-2.0552,-2.0533,-2.051,-2.0488,-2.0481,-2.0449,-2.0432,-2.0402,-2.0376,-2.0358,-2.0324,-2.0279,-2.0258,-2.0242,-2.0225,-2.0228,-2.0229,-2.023,-2.0234,-2.0186,-2.0237,-2.0236,-2.0236,-2.0236,-2.0236,0,-2.065,-2.0626,-2.061,-2.0577,-2.0562,-2.0533,-2.0505,-2.0493,-2.0478,-2.045,-2.043,-2.0406,-2.0384,-2.0344,-2.0318,-2.0313,-2.0297,-2.0308,-2.0306,-2.0301,-2.0252,-2.0252,-2.0321,-2.0321,-2.0321,-2.0321,-2.0321,-2.0321,-2.068,-2.0673,-2.0649,-2.063,-2.0606,-2.0588,-2.0574,-2.0553,-2.0531,-2.0507,-2.0488,-2.0463,-2.043,-2.0401,-2.0379,-2.0368,-2.0359,-2.0375,-2.0359,-2.0313,-2.0305,-2.0297,-2.0296,-2.0374,-2.0374,-2.0409,-2.0409,-2.041]},{"header":{"parameterUnit":"m.s-1","parameterCategory":1,"la1":30.2991,"la2":30.254,"lo1":-89.0895,"lo2":-89.0444,"dy":0.0017,"dx":0.0017,"nx":28,"ny":28,"refTime":"2024-05-22T21:00:00:Z","depth":0,"parameterNumber":3,"parameterNumberName":"V-component_of_WINDS"},"data":[0,0,0,0,0,0,0,0,0,0,0,0,0,0,0,0,0,0,0,0,0,0,0,0,0,0,0,0,0,0,0,0,0,0,0,0,0,0,0,0,0,0,0,0,0,0,0,0,0,0,0,0,0,0,0,0,0,0,4.3256,4.3256,0,4.3234,4.3234,4.3233,4.3219,4.3219,4.3218,4.3218,4.3193,4.3192,4.3191,0,0,0,0,0,0,0,0,0,0,0,0,0,4.3284,4.3283,4.3256,4.3256,4.3255,4.3234,4.3233,4.3233,4.3219,4.3219,4.3218,4.3218,4.3193,4.3192,4.3191,0,0,0,0,0,0,0,0,0,0,0,0,0,4.3267,4.3283,4.3256,4.3246,4.3244,4.3234,4.3233,4.3233,4.3219,4.3219,4.3218,4.3218,4.3193,4.3192,4.3191,4.3188,0,0,4.3188,4.3188,0,0,0,0,0,0,0,0,4.3268,4.3266,4.3247,4.3246,4.3245,4.3229,4.3234,4.3218,4.3219,4.3228,4.3218,4.3218,4.3205,4.3203,4.3199,4.3187,4.3186,4.3188,4.3188,4.3187,4.3187,0,0,0,0,0,0,0,4.327,4.3267,4.3247,4.3247,4.3246,4.3241,4.3239,4.3231,4.3217,4.3227,4.3226,4.3224,4.3204,4.32,4.3198,4.3186,4.3188,4.3188,4.3187,4.3187,4.3172,4.3172,0,0,0,0,0,0,4.3273,4.3268,4.3248,4.3246,4.3257,4.3241,4.3238,4.3234,4.3217,4.3215,4.3224,4.3224,4.3201,4.3199,4.3197,4.3194,4.3187,4.3187,4.3186,4.3172,4.3172,4.3172,0,0,0,0,0,0,4.3273,4.3271,4.3249,4.3257,4.3254,4.3241,4.3236,4.3234,4.323,4.3215,4.3212,4.3223,4.3201,4.3198,4.3191,4.3192,4.3186,4.3185,4.3172,4.3172,4.3172,4.3186,0,0,0,0,0,0,4.3274,4.3271,4.327,4.3257,4.3254,4.3244,4.3236,4.3233,4.3228,4.3227,4.3213,4.321,4.3201,4.3193,4.319,4.3191,4.3185,4.3171,4.3172,4.3172,4.3185,4.3187,4.3188,0,0,0,0,0,4.3275,4.3274,4.327,4.3268,4.3252,4.3244,4.3242,4.3232,4.3229,4.3227,4.3218,4.3211,4.3193,4.3192,4.3189,4.319,4.3171,4.3172,4.3172,4.3185,4.3186,4.3188,0,0,0,0,0,0,4.3286,4.3272,4.3268,4.3262,4.3255,4.3241,4.3239,4.3233,4.3225,4.3224,4.3212,4.3208,4.3203,4.3195,4.3195,4.3187,4.3181,4.3181,4.3192,4.3193,4.3194,4.3196,4.3184,0,0,0,0,0,4.3288,4.3283,4.3271,4.3267,4.3264,4.3252,4.3248,4.3242,4.3232,4.3229,4.3219,4.321,4.3202,4.3197,4.3189,4.3184,4.3181,4.3183,4.3185,4.3186,4.3186,4.3184,4.3185,4.3173,4.3173,4.3173,0,0,4.3291,4.3283,4.3281,4.3269,4.3262,4.3257,4.3249,4.3244,4.324,4.3227,4.3221,4.3213,4.3202,4.3197,4.3194,4.319,4.3188,4.3186,4.3187,4.3186,4.3184,4.3185,4.3186,4.3174,4.3174,4.3173,0,0,4.3295,4.3289,4.3286,4.328,4.327,4.3263,4.3262,4.325,4.3245,4.3239,4.323,4.3224,4.3211,4.3204,4.3199,4.3203,4.3196,4.32,4.3206,4.3205,4.3206,4.3207,4.3209,4.3209,4.32,4.32,4.32,0,4.3301,4.3293,4.3285,4.328,4.3276,4.3266,4.3263,4.3257,4.3245,4.3242,4.3239,4.3224,4.3215,4.3208,4.321,4.3205,4.3204,4.3202,4.3207,4.3207,4.3208,4.321,4.321,4.3201,4.3201,4.3201,4.3201,0,4.3301,4.3296,4.3295,4.3285,4.328,4.3277,4.3267,4.3263,4.3258,4.3251,4.3245,4.3235,4.3225,4.3223,4.3217,4.3216,4.3214,4.3209,4.3203,4.321,4.3211,4.3212,4.3202,4.3202,4.3202,4.3201,0,0,4.3309,4.3297,4.3296,4.3293,4.3282,4.3278,4.3274,4.3267,4.3264,4.3256,4.3253,4.3243,4.3239,4.3233,4.3226,4.3224,4.3229,4.3219,4.3219,4.3222,4.3229,4.3233,4.3234,4.3225,4.3225,4.3225,4.323,0,4.3312,4.3306,4.3299,4.3295,4.329,4.3282,4.3279,4.3272,4.3266,4.3261,4.3254,4.3248,4.3242,4.3239,4.3237,4.3229,4.323,4.3228,4.3221,4.3221,4.3224,4.3235,4.3239,4.3244,4.323,4.323,4.323,0,4.3314,4.3309,4.3305,4.3297,4.3295,4.3292,4.3285,4.3281,4.3273,4.3269,4.3263,4.3256,4.3252,4.3247,4.3241,4.324,4.3237,4.3233,4.3232,4.3231,4.3226,4.3234,4.3245,4.3246,4.3231,4.3231,4.3231,0,4.3322,4.3313,4.331,4.3307,4.3297,4.3296,4.3291,4.3284,4.328,4.3274,4.3272,4.3265,4.3261,4.3256,4.3247,4.3244,4.3242,4.3236,4.3239,4.3239,4.3238,4.3238,4.325,4.3236,4.3236,4.3236,4.3236,0,4.3325,4.3323,4.3314,4.3312,4.331,4.3302,4.33,4.3294,4.3288,4.3285,4.3277,4.3274,4.3263,4.3259,4.3252,4.3248,4.3246,4.3243,4.3241,4.3244,4.3244,4.3241,4.3241,4.3236,4.3236,4.3236,4.3236,0,4.3333,4.3327,4.3323,4.3315,4.3313,4.3312,4.3304,4.3302,4.3297,4.3293,4.3291,4.3282,4.3277,4.3268,4.326,4.3255,4.3253,4.325,4.3256,4.3255,4.3258,4.3259,4.3268,4.3269,4.3255,4.3255,4.3255,0,4.3336,4.3335,4.3327,4.3325,4.3322,4.3318,4.3315,4.3307,4.3305,4.3297,4.3296,4.3291,4.3286,4.3278,4.327,4.3264,4.3261,4.3265,4.326,4.3263,4.3262,4.3262,4.3262,4.3266,4.3266,4.3266,4.3266,0,4.3342,4.3339,4.3336,4.3332,4.3329,4.3325,4.3321,4.3319,4.3311,4.3308,4.3303,4.33,4.3293,4.3288,4.3281,4.3276,4.327,4.3268,4.3269,4.3271,4.3275,4.3274,4.326,4.3268,4.3268,4.3268,4.3268,4.3268,4.3347,4.3346,4.3342,4.3338,4.3335,4.3331,4.333,4.3325,4.3321,4.3316,4.3311,4.3308,4.3301,4.3292,4.3288,4.3285,4.3282,4.3282,4.3282,4.3282,4.3284,4.3276,4.3283,4.3283,4.3283,4.3283,4.3283,0,4.3353,4.335,4.3348,4.3343,4.3341,4.3337,4.3332,4.333,4.3328,4.3323,4.3319,4.3315,4.3311,4.3303,4.3298,4.3297,4.3294,4.3296,4.3296,4.3295,4.3286,4.3287,4.3299,4.3299,4.3299,4.3299,4.3299,4.3299,4.3356,4.3355,4.3352,4.3349,4.3346,4.3343,4.3341,4.3338,4.3335,4.3331,4.3328,4.3324,4.3318,4.3313,4.3309,4.3307,4.3306,4.3309,4.3306,4.3297,4.3296,4.3294,4.3295,4.3308,4.3308,4.3315,4.3315,4.3316]}]]